This demonstration page uses our WeatherBlox Daily Observations layout. Learn more.

Left ArrowRight Arrow

Hourly Observations for August 31, 2021

Temp ( °F °C ) Dew Point ( °F °C ) Humidity (%) Winds ( mph kmh ) Pressure ( in mb ) Visibility ( mi km ) Precip ( " mm )
12:53 am 00:53 Cloudy with Haze 76 24.4 41 5 29 29 NNE 3 6 29.62 1003 6 10 0.00 0.00
1:53 am 01:53 Cloudy with Haze 72 22.2 41 5 33 33 Calm 29.62 1003 5 8 0.00 0.00
2:53 am 02:53 Cloudy with Haze 67 19.4 42 5.6 41 41 Calm 29.62 1003 6 10 0.00 0.00
3:53 am 03:53 Cloudy with Haze 66 18.9 42 5.6 42 42 Calm 29.63 1003 6 10 0.00 0.00
4:53 am 04:53 Cloudy with Haze 63 17.2 41 5 45 45 NE 5 7 29.63 1003 6 10 0.00 0.00
5:53 am 05:53 Cloudy with Haze 64 17.8 42 5.6 45 45 N 5 7 29.63 1003 5 8 0.00 0.00
6:53 am 06:53 Cloudy with Haze 63 17.2 41 5 45 45 NNE 5 7 29.65 1004 4 6 0.00 0.00
7:53 am 07:53 Hazy 75 23.9 40 4.4 28 28 N 7 11 29.65 1004 3 5 0.00 0.00
8:53 am 08:53 Hazy 80 26.7 41 5 25 25 NNW 7 11 29.65 1004 5 8 0.00 0.00
9:53 am 09:53 Hazy 84 28.9 39 3.9 20 20 N 12 19 29.65 1004 6 10 0.00 0.00
10:53 am 10:53 Sunny with Smoke 87 30.6 39 3.9 18 18 NNW 10 17 29.65 1004 7 11 0.00 0.00
11:53 am 11:53 Sunny with Smoke 92 33.3 39 3.9 16 16 NW 6 9 29.62 1003 7 11 0.00 0.00
12:53 pm 12:53 Partly Cloudy with Smoke 95 35 38 3.3 14 14 VRB 3 6 29.60 1003 7 11 0.00 0.00
1:53 pm 13:53 Cloudy with Haze 97 36.1 37 2.8 12 12 Calm 29.59 1002 6 10 0.00 0.00
2:33 pm 14:33 Cloudy with Haze 96 35.6 36 2.2 12 12 VRB 6 9 29.56 1001 4 6 0.00 0.00
2:53 pm 14:53 Cloudy with Haze 97 36.1 35 1.7 11 11 SSW 7 11 29.57 1001 4 6 0.00 0.00
3:53 pm 15:53 Cloudy with Haze 97 36.1 33 0.6 10 10 VRB 3 6 29.55 1001 4 6 0.00 0.00
4:29 pm 16:29 Cloudy with Haze 97 36.1 31 -0.6 10 10 S 6 9 29.53 1000 5 8 0.00 0.00
4:53 pm 16:53 Cloudy with Haze 98 36.7 31 -0.6 9 9 S 8 13 29.54 1000 5 8 0.00 0.00
5:09 pm 17:09 Cloudy with Haze 97 36.1 36 2.2 12 12 S 10 17 29.52 1000 5 8 0.00 0.00
5:53 pm 17:53 Cloudy with Haze 96 35.6 40 4.4 14 14 SSE 13 20 29.54 1000 5 8 0.00 0.00
6:53 pm 18:53 Cloudy with Haze 91 32.8 46 7.8 21 21 SSE 9 15 29.54 1001 4 6 0.00 0.00
7:16 pm 19:16 Cloudy with Haze 90 32.2 47 8.3 23 23 S 10 17 29.54 1000 4 6 0.00 0.00
7:53 pm 19:53 Cloudy with Haze 85 29.4 48 8.9 28 28 S 7 11 29.56 1001 4 6 0.00 0.00
8:53 pm 20:53 Cloudy with Haze 83 28.3 49 9.4 31 31 Calm 29.58 1002 5 8 0.00 0.00
9:18 pm 21:18 Cloudy with Haze 81 27.2 48 8.9 32 32 Calm 29.60 1002 5 8 0.00 0.00
9:53 pm 21:53 Cloudy with Haze 78 25.6 48 8.9 35 35 E 3 6 29.60 1003 6 10 0.00 0.00
10:53 pm 22:53 Cloudy with Haze 77 25 48 8.9 36 36 Calm 29.61 1003 6 10 0.00 0.00
11:53 pm 23:53 Cloudy with Haze 75 23.9 48 8.9 39 39 N 3 6 29.62 1003 6 10 0.00 0.00

Powered by AerisWeather